Weather History for Modesto, CA

Change the Weather History Date:

Sunday, August 3, 2014

  Actual Average Record
Temperature  
Mean Temperature 75 °F -  
Max Temperature 86 °F 95 °F 106 °F (1998)
Min Temperature 63 °F 63 °F 51 °F (1962)
Degree Days  
Heating Degree Days 0 0  
Month to date heating degree days 0 0  
Since 1 June heating degree days 0 3  
Since 1 July heating degree days 0 0  
Cooling Degree Days 10 14  
Month to date cooling degree days 53 42  
Year to date cooling degree days 1081 977  
Since 1 June cooling degree days 829 778  
Growing Degree Days 24 (Base 50)    
Moisture  
Dew Point 57 °F    
Average Humidity 58    
Maximum Humidity 78    
Minimum Humidity 37    
Precipitation  
Precipitation 0.00 in 0.00 in 0.00 in (2014)
Month to date precipitation 0.00 0.00  
Year to date precipitation 5.51 8.75  
Since 1 July precipitation 0.00 T  
Snow  
Snow 0.00 in - - ()
Month to date snowfall 0.0  
Since 1 June snowfall 0.0  
Since 1 July snowfall 0.0  
Snow Depth -    
Sea Level Pressure  
Sea Level Pressure 29.88 in    
Wind  
Wind Speed 6 mph (NW)    
Max Wind Speed 14 mph    
Max Gust Speed 16 mph    
Visibility 10 miles    
Events      
T = Trace of Precipitation, MM = Missing Value Source: NWS Daily Summary

Daily Weather History Graph

Daily Weather History Graph

Search for Another Location

Airport:

Trip Planner

Search our weather history database for the weather conditions in past years. The results will help you decide how hot, cold, wet, or windy it might be!

Date:

Astronomy

Aug. 03, 2014 Rise Set
Actual Time 6:09 AM PDT 8:09 PM PDT
Civil Twilight 5:40 AM PDT 8:38 PM PDT
Nautical Twilight 5:05 AM PDT 9:13 PM PDT
Astronomical Twilight 4:27 AM PDT 9:51 PM PDT
Moon 1:26 PM PDT (8/3) No Moon Set
Length of Visible Light 14h 58m
Length of Day
14h 00m
Waxing Crescent, 48% of the Moon is Illuminated
Aug 3
Waxing Crescent
Aug 3
First Quarter
Aug 10
Full
Aug 17
Last Quarter
Aug 25
New

Hourly Weather History & Observations

Time (PDT) Temp. Heat Index Dew Point Humidity Pressure Visibility Wind Dir Wind Speed Gust Speed Precip Events Conditions
1:53 AM 73.0 °F - 55.9 °F 55% 29.84 in 10.0 mi NW 6.9 mph - N/A   Clear
2:53 AM 70.0 °F - 57.0 °F 63% 29.85 in 10.0 mi NW 5.8 mph - N/A   Clear
3:53 AM 68.0 °F - 57.0 °F 68% 29.85 in 10.0 mi NW 6.9 mph - N/A   Clear
4:53 AM 66.0 °F - 55.9 °F 70% 29.85 in 10.0 mi NW 9.2 mph - N/A   Clear
5:53 AM 64.0 °F - 57.0 °F 78% 29.87 in 10.0 mi NNW 8.1 mph - N/A   Clear
6:53 AM 63.0 °F - 55.9 °F 78% 29.89 in 10.0 mi NNW 6.9 mph - N/A   Clear
7:53 AM 64.9 °F - 55.9 °F 73% 29.90 in 10.0 mi NNW 10.4 mph - N/A   Clear
8:53 AM 66.9 °F - 55.9 °F 68% 29.93 in 10.0 mi North 6.9 mph - N/A   Clear
9:53 AM 69.1 °F - 57.0 °F 65% 29.92 in 10.0 mi WNW 8.1 mph - N/A   Clear
10:53 AM 73.0 °F - 57.0 °F 57% 29.91 in 10.0 mi North 6.9 mph - N/A   Clear
11:53 AM 78.1 °F - 57.0 °F 48% 29.92 in 10.0 mi Calm Calm - N/A   Clear
12:53 PM 79.0 °F - 57.9 °F 48% 29.91 in 10.0 mi NNW 5.8 mph - N/A   Clear
1:53 PM 82.0 °F 82.0 °F 57.9 °F 44% 29.90 in 10.0 mi Calm Calm - N/A   Clear
2:53 PM 84.9 °F 83.7 °F 55.9 °F 37% 29.88 in 10.0 mi WSW 4.6 mph - N/A   Clear
3:53 PM 84.0 °F 83.8 °F 59.0 °F 43% 29.87 in 10.0 mi West 4.6 mph - N/A   Clear
4:53 PM 84.0 °F 83.8 °F 59.0 °F 43% 29.85 in 10.0 mi SW 3.5 mph - N/A   Clear
5:53 PM 84.9 °F 84.4 °F 59.0 °F 41% 29.84 in 10.0 mi Calm Calm - N/A   Clear
7:53 PM 82.9 °F 82.8 °F 59.0 °F 44% 29.84 in 10.0 mi NW 4.6 mph - N/A   Clear
8:53 PM 78.1 °F - 62.1 °F 58% 29.85 in 10.0 mi Calm Calm - N/A   Clear
10:53 PM 73.9 °F - 57.0 °F 55% 29.87 in 10.0 mi NNW 10.4 mph - N/A   Clear
11:53 PM 72.0 °F - 57.0 °F 59% 29.88 in 10.0 mi NNW 8.1 mph - N/A   Clear